OH6HPS Weather Reports


time (UTC)temp
F
wind
direction
speed
knots
gust
knots
rain 1hr
in
rain 24hr
in
rain mn
in
humidity
%
barometer
mb
20260906063702 52 223 2.6 4.3 0.00 0.00 0.00 85 1006.7
20260906062703 52 238 0.9 4.3 0.00 0.00 0.00 86 1006.7
20260906061703 51 192 1.7 2.6 0.00 0.00 0.00 87 1006.6
20260906060703 50 282 0.9 3.5 0.00 0.00 0.00 89 1006.6
20260906055703 49 262 0.0 4.3 0.00 0.00 0.00 89 1006.4
20260906054702 49 213 0.9 4.3 0.00 0.00 0.00 90 1006.5
20260906053703 48 230 1.7 2.6 0.00 0.00 0.00 92 1006.3
20260906052702 47 59 0.9 1.7 0.00 0.00 0.00 94 1006.2
20260906051703 46 250 0.0 1.7 0.00 0.00 0.00 95 1006.1
20260906050702 45 250 0.0 1.7 0.00 0.00 0.00 95 1006.0
20260906045702 45 272 0.0 0.9 0.00 0.00 0.00 94 1005.9
20260906044703 45 272 0.0 0.9 0.00 0.00 0.00 94 1006.0
20260906043702 45 272 0.9 3.5 0.00 0.00 0.00 94 1005.8
20260906042703 44 295 0.9 1.7 0.00 0.00 0.00 93 1005.7
20260906041702 45 245 0.0 0.9 0.00 0.00 0.00 93 1005.5
20260906040703 45 245 0.0 3.5 0.00 0.00 0.00 93 1005.4
20260906035702 45 285 0.9 2.6 0.00 0.00 0.00 93 1005.4
20260906034702 45 214 0.9 2.6 0.00 0.00 0.00 93 1005.3
20260906033704 45 214 0.0 1.7 0.00 0.00 0.00 93 1005.2
20260906032703 46 216 0.9 2.6 0.00 0.00 0.00 92 1005.0
20260906031703 46 250 0.9 2.6 0.00 0.00 0.00 91 1004.9
20260906030702 46 250 0.0 1.7 0.00 0.00 0.00 91 1004.8
20260906025703 47 259 0.0 1.7 0.00 0.00 0.00 91 1004.5
20260906024703 47 66 0.9 2.6 0.00 0.00 0.00 91 1004.4
20260906023702 48 73 0.9 5.2 0.00 0.00 0.00 91 1004.3
20260906022703 48 216 1.7 3.5 0.00 0.00 0.00 92 1004.4
20260906021703 48 281 1.7 5.2 0.00 0.00 0.00 92 1004.3
20260906020702 47 59 1.7 5.2 0.00 0.00 0.00 92 1004.1
20260906015703 47 264 0.9 6.1 0.00 0.00 0.00 93 1004.0
20260906014703 47 293 3.5 7.8 0.00 0.00 0.00 93 1003.9
20260906013703 47 56 0.0 5.2 0.00 0.00 0.00 93 1003.8
20260906012702 46 283 0.9 3.5 0.00 0.00 0.00 92 1003.9
20260906011703 46 248 0.9 2.6 0.00 0.00 0.00 92 1003.6
20260906010702 47 258 0.9 2.6 0.00 0.00 0.00 91 1003.5
20260906005703 47 295 0.9 3.5 0.00 0.00 0.00 91 1003.4
20260906004702 47 268 1.7 2.6 0.00 0.00 0.00 91 1003.2
20260906003702 47 0 1.7 5.2 0.00 0.00 0.00 91 1003.2
20260906002702 47 68 0.9 4.3 0.00 0.00 0.00 91 1003.1
20260906001702 47 52 0.9 2.6 0.00 0.00 0.00 91 1002.9
20260906000702 48 278 0.9 6.1 0.00 0.00 0.00 91 1002.8
20260905235702 48 87 0.9 4.3 0.00 0.00 0.00 91 1002.6
20260905234703 48 192 0.0 4.3 0.00 0.00 0.00 91 1002.5
20260905233702 48 265 0.9 6.1 0.00 0.00 0.00 91 1002.4
20260905232702 48 148 0.9 2.6 0.00 0.00 0.00 92 1002.3
20260905231702 48 158 0.9 3.5 0.00 0.00 0.00 92 1002.1
20260905230701 49 147 0.0 1.7 0.00 0.00 0.00 91 1002.1
20260905225703 49 234 0.9 4.3 0.00 0.00 0.00 92 1002.0
20260905224702 49 94 1.7 6.1 0.00 0.00 0.00 92 1001.8
20260905223702 49 259 0.9 3.5 0.00 0.00 0.00 93 1001.7
20260905222703 49 247 0.0 2.6 0.00 0.00 0.00 93 1001.7
20260905221702 49 58 0.9 4.3 0.00 0.00 0.00 94 1001.6
20260905220703 49 55 0.0 1.7 0.00 0.00 0.00 95 1001.5
20260905215702 49 203 0.9 3.5 0.00 0.00 0.00 94 1001.3
20260905214702 49 0 0.9 1.7 0.00 0.00 0.00 93 1001.3
20260905213702 49 0 0.0 1.7 0.00 0.00 0.00 95 1001.2
20260905212702 49 0 0.0 1.7 0.00 0.00 0.00 93 1001.1
20260905211703 49 0 0.0 0.9 0.00 0.00 0.00 93 1001.0
20260905210702 49 0 0.0 1.7 0.00 0.00 0.00 93 1000.9
20260905205703 50 285 0.0 0.9 0.00 0.00 0.00 94 1000.8
20260905204702 49 285 0.0 1.7 0.00 0.00 0.00 94 1000.6
20260905203703 49 285 0.0 1.7 0.00 0.00 0.00 94 1000.4
20260905202702 49 289 0.0 1.7 0.00 0.00 0.00 93 1000.2
20260905201702 49 281 0.0 0.9 0.00 0.00 0.00 92 1000.1
20260905200703 49 281 0.0 0.0 0.00 0.00 0.00 92 1000.0
20260905195702 50 281 0.0 0.0 0.00 0.00 0.00 91 999.8
20260905194703 50 281 0.0 0.0 0.00 0.00 0.00 91 999.6
20260905193702 51 281 0.0 0.0 0.00 0.00 0.00 91 999.5
20260905192702 51 281 0.0 0.0 0.00 0.00 0.00 91 999.5
20260905191703 51 281 0.0 0.0 0.00 0.00 0.00 91 999.4
20260905190702 52 281 0.0 0.0 0.00 0.00 0.00 90 999.4
20260905185702 52 281 0.0 0.0 0.00 0.00 0.00 89 999.5
20260905184702 53 281 0.0 0.0 0.00 0.00 0.00 89 999.4
20260905183702 53 281 0.0 0.0 0.00 0.00 0.00 88 999.3
20260905182702 54 281 0.0 0.0 0.00 0.00 0.00 87 999.2
20260905181702 55 281 0.0 0.0 0.00 0.00 0.00 86 999.2
20260905180703 56 281 0.0 0.0 0.00 0.00 0.00 86 999.1
20260905175702 56 281 0.0 0.0 0.00 0.00 0.00 85 999.0
20260905174702 57 281 0.0 0.9 0.00 0.00 0.00 85 998.9
20260905173703 57 281 0.0 1.7 0.00 0.00 0.00 83 998.8
20260905172702 58 281 0.0 0.0 0.00 0.00 0.00 80 998.7
20260905171703 58 281 0.0 0.0 0.00 0.00 0.00 78 998.5
20260905170702 59 281 0.0 3.5 0.00 0.00 0.00 76 998.4
20260905165702 60 234 0.0 3.5 0.00 0.00 0.00 74 998.3
20260905164703 60 255 0.0 2.6 0.00 0.00 0.00 71 998.1
20260905163703 61 255 0.0 3.5 0.00 0.00 0.00 69 998.0
20260905162703 62 262 0.9 4.3 0.00 0.00 0.00 69 997.9
20260905161703 62 281 1.7 6.1 0.00 0.00 0.00 69 997.7
20260905160703 63 258 1.7 5.2 0.00 0.00 0.00 69 997.7
20260905155702 63 228 1.7 2.6 0.00 0.00 0.00 69 997.5
20260905154702 63 196 1.7 2.6 0.00 0.00 0.00 68 997.4
20260905153702 63 133 1.7 6.1 0.00 0.00 0.00 67 997.3
20260905152702 63 65 0.9 8.7 0.00 0.00 0.00 67 997.3
20260905151702 64 103 0.9 5.2 0.00 0.00 0.00 67 997.1
20260905150702 63 221 1.7 4.3 0.00 0.00 0.00 65 997.1
20260905145702 63 254 1.7 4.3 0.00 0.00 0.00 64 997.0
20260905144703 63 71 1.7 4.3 0.00 0.00 0.00 62 996.9
20260905143703 63 68 0.9 6.1 0.00 0.00 0.00 62 996.7
20260905142703 63 159 0.9 2.6 0.00 0.00 0.00 65 996.6
20260905141703 63 82 0.0 0.9 0.00 0.00 0.00 63 996.5
20260905140702 63 78 0.0 0.9 0.00 0.00 0.00 67 996.5
20260905135703 64 72 0.0 0.9 0.00 0.00 0.00 65 996.4
20260905134703 64 72 0.0 1.7 0.00 0.00 0.00 57 996.4
20260905133702 65 66 1.7 5.2 0.00 0.00 0.00 55 996.3
20260905132703 66 245 3.5 6.1 0.00 0.00 0.00 52 996.2
20260905131703 66 261 1.7 3.5 0.00 0.00 0.00 56 996.1
20260905130703 64 271 0.9 1.7 0.00 0.00 0.00 63 996.1
20260905125703 64 271 0.9 2.6 0.00 0.00 0.00 63 996.1
20260905124703 65 87 0.9 3.5 0.00 0.00 0.00 61 996.1
20260905123702 65 290 0.9 2.6 0.00 0.00 0.00 62 996.0
20260905122702 65 0 1.7 4.3 0.00 0.00 0.00 58 996.0
20260905121702 66 78 1.7 4.3 0.00 0.00 0.00 59 996.0
20260905120703 66 56 1.7 6.1 0.00 0.00 0.00 56 995.9
20260905115702 67 271 1.7 9.6 0.00 0.00 0.00 56 995.8
20260905114703 66 180 3.5 6.1 0.00 0.00 0.00 56 995.8
20260905113703 64 216 2.6 3.5 0.00 0.00 0.00 63 995.8
20260905112702 64 244 1.7 3.5 0.00 0.00 0.00 62 995.8
20260905111704 65 210 1.7 6.1 0.00 0.00 0.00 57 995.7
20260905110703 67 210 1.7 4.3 0.00 0.00 0.00 55 995.5
20260905105702 66 0 0.9 4.3 0.00 0.00 0.00 57 995.4
20260905104703 65 245 1.7 5.2 0.00 0.00 0.00 60 995.4
20260905103703 65 83 1.7 5.2 0.00 0.00 0.00 60 995.4
20260905102702 63 99 2.6 3.5 0.00 0.01 0.00 64 995.3
20260905101702 63 90 0.0 1.7 0.00 0.02 0.00 67 995.2
20260905100703 63 90 0.0 5.2 0.00 0.03 0.00 66 995.1
20260905095703 65 69 2.6 5.2 0.00 0.03 0.00 62 995.1
20260905094702 65 231 0.0 7.8 0.00 0.03 0.00 67 994.9
20260905093703 65 69 4.3 9.6 0.00 0.03 0.00 65 994.9
20260905092702 65 231 2.6 5.2 0.00 0.03 0.00 65 994.9
20260905091702 64 149 1.7 4.3 0.00 0.03 0.00 68 994.8
20260905090702 63 0 1.7 5.2 0.00 0.03 0.00 67 994.9
20260905085701 64 252 0.9 5.2 0.00 0.03 0.00 66 994.8
20260905084701 64 140 0.9 4.3 0.00 0.03 0.00 68 994.7
20260905083701 63 94 2.6 5.2 0.00 0.03 0.00 73 994.6
20260905082701 62 244 1.7 5.2 0.00 0.03 0.00 75 994.6
20260905081700 61 66 3.5 4.3 0.00 0.03 0.00 78 994.7
20260905080701 60 221 0.0 2.6 0.00 0.03 0.00 81 994.6
20260905075659 59 138 2.6 3.5 0.00 0.03 0.00 86 994.5
20260905074659 58 127 0.9 3.5 0.00 0.03 0.00 84 994.5
20260905073700 56 110 2.6 3.5 0.00 0.03 0.00 90 994.4
20260905072659 54 290 0.9 3.5 0.00 0.03 0.00 93 994.4
20260905071659 52 255 0.9 2.6 0.00 0.03 0.00 95 994.4
20260905070659 51 252 0.9 2.6 0.00 0.03 0.00 97 994.3
20260905065659 50 252 0.9 1.7 0.00 0.03 0.00 97 994.2
20260905064658 49 252 0.9 1.7 0.00 0.03 0.00 97 994.3